Location: Ortigosa del Monte
(40.8418°N, 4.1772°W)
Time: 09:39:29
(UTC+00:00)

Daily predictions for brighter satellites

Satellite Brightness Start Highest point End
(mag) Time Altitude Azimuth Time Altitude Azimuth Time Altitude Azimuth
Cosmos 1937 Rocket 4.3 17:11:57 10° N 17:16:35 29° ENE 17:21:10 10° ESE
Cosmos 2082 Rocket 3.2 17:13:44 10° SSE 17:18:24 27° ESE 17:23:05 10° NE
USA 229 DEB 4.1 17:13:36 10° NNW 17:20:48 53° NE 17:28:24 10° SE
NOAA 6 4.2 17:15:55 10° SE 17:20:52 50° ENE 17:25:48 10° N
USA 229 4.1 17:13:42 10° NNW 17:20:53 53° NE 17:28:29 10° SE
Meteor PRIRODA 3.7 17:21:40 10° S 17:25:17 81° WSW 17:28:57 10° NNW
Cosmos 990 Rocket 4.0 17:20:10 10° NNW 17:25:20 63° ENE 17:30:26 10° SSE
CORIOLIS 4.4 17:20:23 10° SE 17:25:33 50° ENE 17:30:47 10° N
Cosmos 2026 Rocket 4.4 17:20:08 10° N 17:25:49 38° ENE 17:31:25 10° SE
Cosmos 1408 Rocket 3.8 17:21:39 10° N 17:26:02 75° W 17:30:23 10° S
USA 276 2.3 17:25:49 10° NW 17:28:52 50° NNE 17:31:55 10° ESE
Okean O Rocket 3.1 17:26:19 10° E 17:29:00 16° ENE 17:31:41 10° NNE
Cosmos 1602 4.3 17:27:57 10° N 17:31:33 36° ENE 17:35:08 10° SE
Cosmos 1743 Rocket 3.5 17:29:27 10° N 17:33:45 68° E 17:38:03 10° SSE
Cosmos 1782 3.4 17:30:27 10° SSE 17:34:06 35° E 17:37:45 10° NNE
Cosmos 1151 Rocket 4.3 17:31:03 10° SE 17:34:12 20° E 17:37:22 10° NE
NOAA 12 4.3 17:30:10 10° S 17:35:29 79° WSW 17:40:51 10° NNW
COSMOS 2406 3.3 17:30:11 10° S 17:35:51 65° ESE 17:41:33 10° NNE
COSMOS 2455 3.1 17:31:49 10° S 17:37:34 50° ESE 17:43:23 10° NE
USA 234 3.3 17:32:17 10° ESE 17:38:44 64° NE 17:45:11 10° NW
Cosmos 1833 Rocket 2.8 17:36:46 10° SSW 17:42:23 86° WNW 17:48:03 10° NNE
ARGOS 4.0 17:38:09 10° ESE 17:42:35 26° ENE 17:47:00 10° N
NOSS 3-1 (A) 4.1 17:36:49 10° NNW 17:44:31 78° NE 17:53:27 10° SE
Cosmos 1340 Rocket 3.4 17:43:51 10° NNW 17:47:53 61° W 17:51:54 10° S
ISS -2.0 17:46:22 10° NNW 17:48:54 19° NNE 17:50:10 16° NE
SJ 16-02 4.4 17:46:43 10° NW 17:49:45 19° W 17:52:47 10° SW
CZ-2D R/B 3.4 17:46:21 10° SSE 17:50:03 48° ENE 17:53:44 10° N
PAYLOAD B 4.3 17:46:58 10° SSE 17:52:27 58° ENE 17:57:57 10° N
Cosmos 1809 Rocket 4.4 17:47:40 10° N 17:53:46 71° E 17:59:48 10° SSE
Lacrosse 5 rocket 3.4 17:54:38 10° N 17:56:00 11° NNE 17:56:30 11° NNE
SKYMED 2 4.0 17:54:10 10° NNE 17:58:15 39° E 18:02:19 10° SSE
ATLAS CENTAUR R/B 3.6 17:48:15 10° SW 17:59:18 60° NW 18:03:21 13° NNE
CZ-4B R/B 3.4 17:54:16 10° SE 17:59:24 45° ENE 18:04:30 10° N
CZ-2C R/B 3.7 17:59:38 10° S 18:00:54 11° SSE 18:02:10 10° SE
Cosmos 540 Rocket 3.5 17:57:05 10° SSW 18:02:11 82° WNW 18:07:19 10° NNE
Landsat 5 4.2 18:00:26 19° NE 18:02:34 29° E 18:06:03 10° SSE
Cosmos 1500 Rocket 4.5 17:58:16 10° NNW 18:02:35 52° W 18:06:50 10° S
SMAP 3.7 18:00:28 10° S 18:05:02 59° W 18:09:39 10° NNW
Cosmos 2360 4.2 17:59:49 10° NNW 18:05:35 83° ENE 18:11:18 10° SSE
Cosmos 1500 3.1 18:02:12 10° N 18:05:55 61° E 18:09:35 10° SSE
Cosmos 1814 Rocket 4.2 18:01:00 10° S 18:06:01 48° ESE 18:10:08 15° NNE
CZ-2C R/B 2.7 18:01:17 10° NNE 18:06:21 51° E 18:11:22 10° S
Meteor 1-26 Rocket 4.4 18:03:35 10° S 18:09:31 88° E 18:15:36 10° N
Cosmos 1933 4.3 18:06:52 10° SSW 18:10:47 49° W 18:14:43 10° N
MOS 1-B 4.3 18:06:44 10° SSE 18:12:30 80° ENE 18:18:18 10° NNW
CZ-4C R/B 3.3 18:05:45 10° NNW 18:12:38 43° NE 18:20:10 11° ESE
Cosmos 1805 Rocket 3.9 18:09:53 10° NNW 18:14:12 68° W 18:18:29 10° S
Sich 1 3.0 18:10:24 10° N 18:14:43 87° W 18:19:01 10° S
PSLV R/B 4.0 18:11:52 10° S 18:15:30 67° WSW 18:19:11 10° NNW
Cosmos 1898 Rocket 4.1 18:12:06 10° NNW 18:17:16 60° WSW 18:22:21 10° S
Cosmos 1092 Rocket 4.4 18:13:22 10° NNW 18:19:40 66° W 18:25:54 10° S
deb Chang Zheng 4 3.4 18:22:13 10° SSE 18:26:29 72° ENE 18:30:48 10° N
GPS 2-04 Rocket1 3.8 18:25:19 10° WSW 18:29:10 38° S 18:30:51 26° SE
Cosmos 2208 Rocket 4.1 18:25:44 10° S 18:30:58 57° ESE 18:33:46 27° NE
H-2A R/B 2.4 18:27:54 10° S 18:33:05 67° WSW 18:38:09 10° NNW
Cosmos 2142 Rocket 4.4 18:29:12 10° S 18:35:20 86° W 18:41:35 10° N
Cosmos 1666 2.4 18:31:51 10° N 18:35:35 76° E 18:39:15 10° SSE
YAOGAN 3 4.4 18:31:17 10° SSE 18:35:37 76° ENE 18:39:58 10° N
CZ-4C R/B 3.9 18:37:58 32° SSE 18:37:58 32° SSE 18:40:01 10° S
SJ-11-01 4.2 18:34:47 10° SSE 18:39:32 85° ENE 18:44:18 10° NNW
Meteor 1-14 Rocket 4.3 18:35:57 10° N 18:41:49 89° W 18:47:45 10° S
Meteor 2-16 Rocket 4.4 18:37:21 10° N 18:43:30 90° W 18:49:38 10° S
Cosmos 2322 Rocket 3.9 18:40:08 10° N 18:41:55 16° NNE 18:41:55 16° NNE
Cosmos 2279 Rocket 4.1 18:38:44 10° S 18:44:57 77° W 18:51:11 10° N
COSMO-SKYMED 1 3.1 18:42:21 12° N 18:46:21 59° WNW 18:50:37 10° SSW
Cosmos 1697 Rocket 4.0 18:42:08 10° NW 18:47:21 40° WSW 18:52:33 10° S
NOSS 2-2 (C) 4.5 18:42:46 10° NW 18:48:20 90° ENE 18:56:12 10° SSE
Cosmos 1812 3.7 18:45:01 10° SSW 18:48:42 45° W 18:51:36 15° N
Cosmos 2369 4.2 18:45:26 10° NNW 18:51:04 60° WSW 18:56:39 10° S
Cosmos 1980 Rocket 2.3 18:45:47 10° NNW 18:51:28 76° WSW 18:57:03 10° SSE
Spot 2 4.5 18:47:30 10° SSE 18:52:29 58° ENE 18:57:32 10° N
Cosmos 2266 Rocket 4.0 18:46:28 10° N 18:52:45 57° E 18:59:02 10° SSE
Meteor 1-5 Rocket 4.4 18:47:30 10° NNW 18:53:30 81° W 18:59:22 10° S
SL-24 R/B - RUBIN 2 3.6 18:51:04 10° NW 18:55:31 75° WSW 18:56:47 44° SSE
Cosmos 921 Rocket 3.4 18:53:43 10° S 18:56:51 49° S 18:56:51 49° S
Cosmos 1633 Rocket 3.3 18:53:46 10° NNW 18:58:06 66° W 19:02:27 10° S
Meteor 2-15 Rocket 4.3 18:54:40 10° S 19:00:44 68° E 19:03:20 35° NNE
SL-16 R/B 3.4 18:56:29 10° N 18:59:20 26° NNE 18:59:20 26° NNE
Cosmos 2082 Rocket 3.2 18:56:50 10° SW 19:02:13 43° WNW 19:06:20 17° N
Okean O Rocket 2.4 19:00:35 10° S 19:04:54 51° W 19:09:16 10° NNW
Meteor 1-27 Rocket 4.5 19:08:18 10° S 19:11:40 37° SSE 19:11:40 37° SSE
Cosmos 2278 3.9 19:09:53 10° NNW 19:15:33 68° WSW 19:21:04 11° S
IRAS Rocket 4.2 19:21:48 69° S 19:21:48 69° S 19:26:38 10° SSW
ARGOS 4.4 19:17:31 10° SSW 19:22:35 41° W 19:27:42 10° NNW
COSMOS 2455 4.4 19:18:34 10° WSW 19:23:45 29° NW 19:27:05 18° N
Cosmos 1655 Rocket 4.1 19:17:52 10° N 19:24:16 78° W 19:30:36 10° S
ISS -0.7 19:22:45 10° NW 19:23:11 13° NW 19:23:11 13° NW
Lacrosse 5 rocket 4.2 19:32:06 10° NNW 19:32:06 10° NNW 19:32:06 10° NNW
CZ-2C R/B 4.0 19:36:20 10° SW 19:37:08 14° SW 19:37:08 14° SW
CZ-4C R/B 3.7 19:54:09 10° NW 20:01:30 53° WSW 20:05:34 30° S
